Time,TemperatureF,DewpointF,PressureIn,WindDirection,WindDirectionDegrees,WindSpeedMPH,WindSpeedGustMPH,Humidity,HourlyPrecipIn,Conditions,Clouds,dailyrainin,SolarRadiationWatts/m^2,SoftwareType,DateUTC
2013-01-14 00:00:00,28.3,25.7,30.04,WNW,296,10.0,10.0,90,0.00,RA,,0.00,0.0,WeatherDisplay:10.37,2013-01-14 05:00:00,
2013-01-14 00:03:00,28.2,25.9,30.05,NW,317,14.0,14.0,91,0.00,RA,,0.00,0.0,WeatherDisplay:10.37,2013-01-14 05:03:00,
2013-01-14 00:08:00,27.9,25.1,30.05,West,263,16.1,16.1,89,0.00,RA,,0.00,0.0,WeatherDisplay:10.37,2013-01-14 05:08:00,
2013-01-14 00:13:00,27.7,24.6,30.05,WSW,253,12.7,12.7,88,0.00,CLR,,0.00,0.0,WeatherDisplay:10.37,2013-01-14 05:13:00,
2013-01-14 00:18:00,27.6,24.8,30.05,WNW,285,16.1,16.1,89,0.00,CLR,,0.00,0.0,WeatherDisplay:10.37,2013-01-14 05:18:00,
2013-01-14 00:23:00,27.5,24.4,30.05,WNW,292,19.6,19.6,88,0.00,CLR,,0.00,0.0,WeatherDisplay:10.37,2013-01-14 05:23:00,
2013-01-14 00:28:00,27.4,24.3,30.05,WNW,289,13.0,13.0,88,0.00,CLR,,0.00,0.0,WeatherDisplay:10.37,2013-01-14 05:28:00,
2013-01-14 00:33:00,27.3,23.7,30.05,West,270,16.1,16.1,86,0.00,CLR,,0.00,0.0,WeatherDisplay:10.37,2013-01-14 05:33:00,
2013-01-14 00:38:00,27.1,23.5,30.05,WSW,255,26.5,26.5,86,0.00,CLR,,0.00,0.0,WeatherDisplay:10.37,2013-01-14 05:38:00,
2013-01-14 00:43:00,27.0,23.4,30.06,West,267,13.8,13.8,86,0.00,CLR,,0.00,0.0,WeatherDisplay:10.37,2013-01-14 05:43:00,
2013-01-14 00:48:00,26.8,23.2,30.06,WNW,287,17.3,17.3,86,0.00,CLR,,0.00,0.0,WeatherDisplay:10.37,2013-01-14 05:48:00,
2013-01-14 00:53:00,26.7,23.1,30.06,West,263,21.9,21.9,86,0.00,CLR,,0.00,0.0,WeatherDisplay:10.37,2013-01-14 05:53:00,
2013-01-14 00:58:00,26.6,23.0,30.07,West,279,11.0,11.0,86,0.00,CLR,,0.00,0.0,WeatherDisplay:10.37,2013-01-14 05:58:00,
2013-01-14 01:03:00,26.6,23.0,30.07,WNW,300,15.0,15.0,86,0.00,CLR,,0.00,0.0,WeatherDisplay:10.37,2013-01-14 06:03:00,
2013-01-14 01:08:00,26.4,23.1,30.08,NW,306,19.6,19.6,87,0.00,CLR,,0.00,0.0,WeatherDisplay:10.37,2013-01-14 06:08:00,
2013-01-14 01:13:00,26.3,23.0,30.08,WSW,257,13.8,13.8,87,0.00,CLR,,0.00,0.0,WeatherDisplay:10.37,2013-01-14 06:13:00,
2013-01-14 01:18:00,26.3,23.0,30.08,West,268,11.5,11.5,87,0.00,CLR,,0.00,0.0,WeatherDisplay:10.37,2013-01-14 06:18:00,
2013-01-14 01:23:00,26.3,23.0,30.09,WSW,254,19.6,19.6,87,0.00,CLR,,0.00,0.0,WeatherDisplay:10.37,2013-01-14 06:23:00,
2013-01-14 01:28:00,26.2,22.6,30.09,WSW,253,15.0,15.0,86,0.00,CLR,,0.00,0.0,WeatherDisplay:10.37,2013-01-14 06:28:00,
2013-01-14 01:33:00,26.1,22.5,30.10,West,277,18.4,18.4,86,0.00,CLR,,0.00,0.0,WeatherDisplay:10.37,2013-01-14 06:33:00,
2013-01-14 01:38:00,26.1,22.5,30.10,WNW,303,20.0,20.0,86,0.00,CLR,,0.00,0.0,WeatherDisplay:10.37,2013-01-14 06:38:00,
2013-01-14 01:43:00,26.0,22.4,30.09,West,272,13.8,13.8,86,0.00,CLR,,0.00,0.0,WeatherDisplay:10.37,2013-01-14 06:43:00,
2013-01-14 01:48:00,25.9,22.3,30.10,WNW,287,21.9,21.9,86,0.00,CLR,,0.00,0.0,WeatherDisplay:10.37,2013-01-14 06:48:00,
2013-01-14 01:53:00,25.8,22.2,30.10,WNW,300,16.1,16.1,86,0.00,CLR,,0.00,0.0,WeatherDisplay:10.37,2013-01-14 06:53:00,
2013-01-14 01:58:00,25.8,22.2,30.10,WNW,290,19.6,19.6,86,0.00,CLR,,0.00,0.0,WeatherDisplay:10.37,2013-01-14 06:58:00,
2013-01-14 02:03:00,25.7,22.1,30.11,WSW,254,19.6,19.6,86,0.00,CLR,,0.00,0.0,WeatherDisplay:10.37,2013-01-14 07:03:00,
2013-01-14 02:08:00,25.7,21.8,30.11,WNW,289,25.3,25.3,85,0.00,CLR,,0.00,0.0,WeatherDisplay:10.37,2013-01-14 07:08:00,
2013-01-14 02:13:00,25.7,21.8,30.12,SSW,212,17.3,17.3,85,0.00,CLR,,0.00,0.0,WeatherDisplay:10.37,2013-01-14 07:13:00,
2013-01-14 02:18:00,25.6,21.7,30.12,West,262,20.7,20.7,85,0.00,CLR,,0.00,0.0,WeatherDisplay:10.37,2013-01-14 07:18:00,
2013-01-14 02:23:00,25.6,21.7,30.12,WSW,249,12.7,12.7,85,0.00,CLR,,0.00,0.0,WeatherDisplay:10.37,2013-01-14 07:23:00,
2013-01-14 02:29:00,25.6,21.7,30.12,West,263,13.0,13.0,85,0.00,CLR,,0.00,0.0,WeatherDisplay:10.37,2013-01-14 07:29:00,
2013-01-14 02:34:00,25.6,21.7,30.12,WSW,240,12.7,12.7,85,0.00,CLR,,0.00,0.0,WeatherDisplay:10.37,2013-01-14 07:34:00,
2013-01-14 02:39:00,25.6,22.0,30.13,WSW,248,13.8,13.8,86,0.00,CLR,,0.00,0.0,WeatherDisplay:10.37,2013-01-14 07:39:00,
2013-01-14 02:44:00,25.6,22.0,30.13,West,275,12.7,12.7,86,0.00,CLR,,0.00,0.0,WeatherDisplay:10.37,2013-01-14 07:44:00,
2013-01-14 02:49:00,25.6,22.3,30.14,WSW,248,10.4,10.4,87,0.00,CLR,,0.00,0.0,WeatherDisplay:10.37,2013-01-14 07:49:00,
2013-01-14 02:54:00,25.6,22.3,30.15,WNW,294,9.2,9.2,87,0.00,CLR,,0.00,0.0,WeatherDisplay:10.37,2013-01-14 07:54:00,
2013-01-14 02:59:00,25.6,22.3,30.15,WNW,303,16.0,16.0,87,0.00,CLR,,0.00,0.0,WeatherDisplay:10.37,2013-01-14 07:59:00,
2013-01-14 03:04:00,25.4,21.8,30.16,NW,310,15.0,15.0,86,0.00,CLR,,0.00,0.0,WeatherDisplay:10.37,2013-01-14 08:04:00,
2013-01-14 03:09:00,25.2,21.3,30.16,WNW,289,13.8,13.8,85,0.00,CLR,,0.00,0.0,WeatherDisplay:10.37,2013-01-14 08:09:00,
2013-01-14 03:14:00,25.1,21.2,30.16,WNW,286,15.0,15.0,85,0.00,CLR,,0.00,0.0,WeatherDisplay:10.37,2013-01-14 08:14:00,
2013-01-14 03:19:00,25.0,21.4,30.16,WNW,293,16.0,16.0,86,0.00,CLR,,0.00,0.0,WeatherDisplay:10.37,2013-01-14 08:19:00,
2013-01-14 03:24:00,24.9,21.3,30.17,NW,324,16.1,16.1,86,0.00,CLR,,0.00,0.0,WeatherDisplay:10.37,2013-01-14 08:24:00,
2013-01-14 03:29:00,24.9,21.3,30.17,West,263,17.0,17.0,86,0.00,CLR,,0.00,0.0,WeatherDisplay:10.37,2013-01-14 08:29:00,
2013-01-14 03:34:00,24.9,21.0,30.17,West,273,16.1,16.1,85,0.00,CLR,,0.00,0.0,WeatherDisplay:10.37,2013-01-14 08:34:00,
2013-01-14 03:39:00,24.8,20.9,30.17,WNW,293,15.0,15.0,85,0.00,CLR,,0.00,0.0,WeatherDisplay:10.37,2013-01-14 08:39:00,
2013-01-14 03:44:00,24.8,20.9,30.18,WNW,285,16.1,16.1,85,0.00,CLR,,0.00,0.0,WeatherDisplay:10.37,2013-01-14 08:44:00,
2013-01-14 03:49:00,24.8,20.9,30.18,NW,315,15.0,15.0,85,0.00,CLR,,0.00,0.0,WeatherDisplay:10.37,2013-01-14 08:49:00,
2013-01-14 03:54:00,24.8,21.2,30.18,WSW,242,11.5,11.5,86,0.00,CLR,,0.00,0.0,WeatherDisplay:10.37,2013-01-14 08:54:00,
2013-01-14 03:59:00,24.8,21.2,30.19,WNW,300,11.5,11.5,86,0.00,CLR,,0.00,0.0,WeatherDisplay:10.37,2013-01-14 08:59:00,
2013-01-14 04:04:00,24.8,21.2,30.19,West,279,10.4,10.4,86,0.00,CLR,,0.00,0.0,WeatherDisplay:10.37,2013-01-14 09:04:00,
2013-01-14 04:09:00,24.8,21.2,30.19,WNW,297,12.7,12.7,86,0.00,CLR,,0.00,0.0,WeatherDisplay:10.37,2013-01-14 09:09:00,
2013-01-14 04:14:00,24.8,21.2,30.20,WNW,286,10.0,10.0,86,0.00,CLR,,0.00,0.0,WeatherDisplay:10.37,2013-01-14 09:14:00,
2013-01-14 04:19:00,24.8,21.2,30.20,West,265,18.4,18.4,86,0.00,CLR,,0.00,0.0,WeatherDisplay:10.37,2013-01-14 09:19:00,
2013-01-14 04:24:00,24.8,20.9,30.20,WNW,283,15.0,15.0,85,0.00,CLR,,0.00,0.0,WeatherDisplay:10.37,2013-01-14 09:24:00,
2013-01-14 04:29:00,24.7,20.8,30.21,WNW,294,15.0,15.0,85,0.00,CLR,,0.00,0.0,WeatherDisplay:10.37,2013-01-14 09:29:00,
2013-01-14 04:34:00,24.7,20.8,30.21,NW,307,10.4,10.4,85,0.00,CLR,,0.00,0.0,WeatherDisplay:10.37,2013-01-14 09:34:00,
2013-01-14 04:39:00,24.7,20.8,30.21,SW,235,11.5,11.5,85,0.00,CLR,,0.00,0.0,WeatherDisplay:10.37,2013-01-14 09:39:00,
2013-01-14 04:44:00,24.7,21.1,30.22,West,269,9.2,9.2,86,0.00,CLR,,0.00,0.0,WeatherDisplay:10.37,2013-01-14 09:44:00,
2013-01-14 04:49:00,24.5,20.6,30.22,NW,315,17.3,17.3,85,0.00,CLR,,0.00,0.0,WeatherDisplay:10.37,2013-01-14 09:49:00,
2013-01-14 04:54:00,24.4,20.5,30.23,West,275,9.2,9.2,85,0.00,CLR,,0.00,0.0,WeatherDisplay:10.37,2013-01-14 09:54:00,
2013-01-14 04:59:00,24.3,20.4,30.23,WSW,254,11.5,11.5,85,0.00,CLR,,0.00,0.0,WeatherDisplay:10.37,2013-01-14 09:59:00,
2013-01-14 05:04:00,24.3,20.7,30.23,WSW,238,8.1,8.1,86,0.00,CLR,,0.00,0.0,WeatherDisplay:10.37,2013-01-14 10:04:00,
2013-01-14 05:09:00,24.2,20.6,30.23,WSW,242,15.0,15.0,86,0.00,CLR,,0.00,0.0,WeatherDisplay:10.37,2013-01-14 10:09:00,
2013-01-14 05:14:00,24.2,20.6,30.23,WNW,284,12.7,12.7,86,0.00,CLR,,0.00,0.0,WeatherDisplay:10.37,2013-01-14 10:14:00,
2013-01-14 05:19:00,24.1,20.5,30.23,WNW,293,13.0,13.0,86,0.00,CLR,,0.00,0.0,WeatherDisplay:10.37,2013-01-14 10:19:00,
2013-01-14 05:24:00,24.0,20.4,30.23,NW,307,19.0,19.0,86,0.00,CLR,,0.00,0.0,WeatherDisplay:10.37,2013-01-14 10:24:00,
2013-01-14 05:29:00,23.9,20.3,30.23,West,275,13.8,13.8,86,0.00,CLR,,0.00,0.0,WeatherDisplay:10.37,2013-01-14 10:29:00,
2013-01-14 05:34:00,23.8,19.9,30.24,WSW,251,16.1,16.1,85,0.00,CLR,,0.00,0.0,WeatherDisplay:10.37,2013-01-14 10:34:00,
2013-01-14 05:39:00,23.6,19.8,30.24,NW,321,15.0,15.0,85,0.00,CLR,,0.00,0.0,WeatherDisplay:10.37,2013-01-14 10:39:00,
2013-01-14 05:44:00,23.5,19.7,30.24,West,275,10.4,10.4,85,0.00,CLR,,0.00,0.0,WeatherDisplay:10.37,2013-01-14 10:44:00,
2013-01-14 05:49:00,23.4,19.6,30.25,NNW,330,15.0,15.0,85,0.00,CLR,,0.00,0.0,WeatherDisplay:10.37,2013-01-14 10:49:00,
2013-01-14 05:54:00,23.1,19.3,30.25,WNW,297,13.0,13.0,85,0.00,CLR,,0.00,0.0,WeatherDisplay:10.37,2013-01-14 10:54:00,
2013-01-14 05:59:00,23.0,19.2,30.25,WNW,297,15.0,15.0,85,0.00,CLR,,0.00,0.0,WeatherDisplay:10.37,2013-01-14 10:59:00,
2013-01-14 06:04:00,22.9,19.1,30.25,NW,304,13.8,13.8,85,0.00,CLR,,0.00,0.0,WeatherDisplay:10.37,2013-01-14 11:04:00,
2013-01-14 06:09:00,22.8,19.0,30.26,NW,304,11.5,11.5,85,0.00,CLR,,0.00,0.0,WeatherDisplay:10.37,2013-01-14 11:09:00,
2013-01-14 06:14:00,22.7,18.9,30.26,WNW,298,11.5,11.5,85,0.00,CLR,,0.00,0.0,WeatherDisplay:10.37,2013-01-14 11:14:00,
2013-01-14 06:19:00,22.7,19.1,30.26,WSW,252,15.0,15.0,86,0.00,CLR,,0.00,0.0,WeatherDisplay:10.37,2013-01-14 11:19:00,
2013-01-14 06:24:00,22.6,18.5,30.27,WNW,300,19.6,19.6,84,0.00,CLR,,0.00,0.0,WeatherDisplay:10.37,2013-01-14 11:24:00,
2013-01-14 06:29:00,22.5,18.4,30.27,West,273,13.0,13.0,84,0.00,CLR,,0.00,0.0,WeatherDisplay:10.37,2013-01-14 11:29:00,
2013-01-14 06:34:00,22.5,18.4,30.28,WSW,251,9.0,9.0,84,0.00,CLR,,0.00,0.0,WeatherDisplay:10.37,2013-01-14 11:34:00,
2013-01-14 06:39:00,22.5,18.4,30.29,West,259,13.0,13.0,84,0.00,CLR,,0.00,0.0,WeatherDisplay:10.37,2013-01-14 11:39:00,
2013-01-14 06:44:00,22.6,18.5,30.29,West,281,13.8,13.8,84,0.00,CLR,,0.00,0.0,WeatherDisplay:10.37,2013-01-14 11:44:00,
2013-01-14 06:49:00,22.6,18.8,30.29,NW,310,8.1,8.1,85,0.00,CLR,,0.00,0.0,WeatherDisplay:10.37,2013-01-14 11:49:00,
2013-01-14 06:54:00,22.5,18.7,30.30,WNW,290,6.9,6.9,85,0.00,CLR,,0.00,0.0,WeatherDisplay:10.37,2013-01-14 11:54:00,
2013-01-14 06:59:00,22.5,18.9,30.30,West,278,11.5,11.5,86,0.00,CLR,,0.00,0.0,WeatherDisplay:10.37,2013-01-14 11:59:00,
2013-01-14 07:04:00,22.5,18.7,30.30,WSW,257,10.4,10.4,85,0.00,CLR,,0.00,0.0,WeatherDisplay:10.37,2013-01-14 12:04:00,
2013-01-14 07:09:00,22.5,18.4,30.30,West,267,16.1,16.1,84,0.00,CLR,,0.00,0.0,WeatherDisplay:10.37,2013-01-14 12:09:00,
2013-01-14 07:14:00,22.5,18.4,30.30,WNW,288,15.0,15.0,84,0.00,CLR,,0.00,0.0,WeatherDisplay:10.37,2013-01-14 12:14:00,
2013-01-14 07:19:00,22.5,18.1,30.31,WNW,284,11.5,11.5,83,0.00,CLR,,0.00,0.0,WeatherDisplay:10.37,2013-01-14 12:19:00,
2013-01-14 07:24:00,22.5,18.4,30.31,NW,325,8.1,8.1,84,0.00,CLR,,0.00,0.0,WeatherDisplay:10.37,2013-01-14 12:24:00,
2013-01-14 07:29:00,22.5,18.4,30.31,North,9,13.8,13.8,84,0.00,CLR,,0.00,0.0,WeatherDisplay:10.37,2013-01-14 12:29:00,
2013-01-14 07:34:00,22.4,18.0,30.31,West,271,12.7,12.7,83,0.00,CLR,,0.00,0.0,WeatherDisplay:10.37,2013-01-14 12:34:00,
2013-01-14 07:39:00,22.4,17.7,30.32,WNW,285,16.1,16.1,82,0.00,CLR,,0.00,0.0,WeatherDisplay:10.37,2013-01-14 12:39:00,
2013-01-14 07:44:00,22.3,17.6,30.32,NW,321,10.4,10.4,82,0.00,CLR,,0.00,0.0,WeatherDisplay:10.37,2013-01-14 12:44:00,
2013-01-14 07:49:00,22.3,17.4,30.32,West,277,12.0,12.0,81,0.00,CLR,,0.00,0.0,WeatherDisplay:10.37,2013-01-14 12:49:00,
2013-01-14 07:54:00,22.2,17.3,30.32,WNW,290,15.0,15.0,81,0.00,CLR,,0.00,0.0,WeatherDisplay:10.37,2013-01-14 12:54:00,
2013-01-14 07:59:00,22.1,17.2,30.32,WNW,288,17.3,17.3,81,0.00,CLR,,0.00,0.0,WeatherDisplay:10.37,2013-01-14 12:59:00,
2013-01-14 08:04:00,22.1,17.2,30.32,NW,322,11.5,11.5,81,0.00,CLR,,0.00,0.0,WeatherDisplay:10.37,2013-01-14 13:04:00,
2013-01-14 08:09:00,22.1,17.4,30.33,SSW,207,11.5,11.5,82,0.00,CLR,,0.00,0.0,WeatherDisplay:10.37,2013-01-14 13:09:00,
2013-01-14 08:14:00,22.1,17.2,30.33,WSW,244,16.1,16.1,81,0.00,CLR,,0.00,0.0,WeatherDisplay:10.37,2013-01-14 13:14:00,
2013-01-14 08:19:00,22.1,17.2,30.34,WSW,240,17.3,17.3,81,0.00,CLR,,0.00,0.0,WeatherDisplay:10.37,2013-01-14 13:19:00,
2013-01-14 08:24:00,22.0,17.1,30.34,West,267,15.0,15.0,81,0.00,CLR,,0.00,5.0,WeatherDisplay:10.37,2013-01-14 13:24:00,
2013-01-14 08:29:00,22.0,16.8,30.34,West,271,11.5,11.5,80,0.00,CLR,,0.00,7.0,WeatherDisplay:10.37,2013-01-14 13:29:00,
2013-01-14 08:34:00,21.9,16.4,30.35,WSW,249,13.8,13.8,79,0.00,CLR,,0.00,14.0,WeatherDisplay:10.37,2013-01-14 13:34:00,
2013-01-14 08:39:00,21.8,16.3,30.35,WNW,296,12.0,12.0,79,0.00,CLR,,0.00,19.0,WeatherDisplay:10.37,2013-01-14 13:39:00,
2013-01-14 08:44:00,21.8,16.3,30.36,NW,304,10.4,10.4,79,0.00,CLR,,0.00,77.0,WeatherDisplay:10.37,2013-01-14 13:44:00,
2013-01-14 08:49:00,21.8,16.0,30.36,NW,318,11.5,11.5,78,0.00,CLR,,0.00,70.0,WeatherDisplay:10.37,2013-01-14 13:49:00,
2013-01-14 08:54:00,21.9,16.1,30.37,WNW,292,6.9,6.9,78,0.00,CLR,,0.00,67.0,WeatherDisplay:10.37,2013-01-14 13:54:00,
2013-01-14 08:59:00,22.0,16.5,30.37,WNW,291,11.5,11.5,79,0.00,CLR,,0.00,37.0,WeatherDisplay:10.37,2013-01-14 13:59:00,
2013-01-14 09:04:00,22.0,16.8,30.37,WSW,252,9.2,9.2,80,0.00,CLR,,0.00,32.0,WeatherDisplay:10.37,2013-01-14 14:04:00,
2013-01-14 09:09:00,21.9,16.7,30.37,WNW,294,10.4,10.4,80,0.00,CLR,,0.00,33.0,WeatherDisplay:10.37,2013-01-14 14:09:00,
2013-01-14 09:14:00,21.8,16.3,30.38,WNW,290,16.1,16.1,79,0.00,CLR,,0.00,40.0,WeatherDisplay:10.37,2013-01-14 14:14:00,
2013-01-14 09:19:00,21.7,16.5,30.38,WNW,296,9.2,9.2,80,0.00,CLR,,0.00,39.0,WeatherDisplay:10.37,2013-01-14 14:19:00,
2013-01-14 09:24:00,21.7,16.8,30.38,West,269,13.8,13.8,81,0.00,CLR,,0.00,35.0,WeatherDisplay:10.37,2013-01-14 14:24:00,
2013-01-14 09:29:00,21.8,16.9,30.38,West,281,11.5,11.5,81,0.00,CLR,,0.00,30.0,WeatherDisplay:10.37,2013-01-14 14:29:00,
2013-01-14 09:34:00,21.8,17.2,30.38,NW,317,9.2,9.2,82,0.00,CLR,,0.00,33.0,WeatherDisplay:10.37,2013-01-14 14:34:00,
2013-01-14 09:39:00,21.8,16.9,30.38,NW,309,12.7,12.7,81,0.00,CLR,,0.00,40.0,WeatherDisplay:10.37,2013-01-14 14:39:00,
2013-01-14 09:44:00,21.8,16.9,30.38,NW,310,12.7,12.7,81,0.00,CLR,,0.00,49.0,WeatherDisplay:10.37,2013-01-14 14:44:00,
2013-01-14 09:49:00,21.7,16.5,30.39,NW,313,12.7,12.7,80,0.00,CLR,,0.00,44.0,WeatherDisplay:10.37,2013-01-14 14:49:00,
2013-01-14 09:54:00,21.5,16.0,30.39,WNW,286,16.1,16.1,79,0.00,CLR,,0.00,69.0,WeatherDisplay:10.37,2013-01-14 14:54:00,
2013-01-14 09:59:00,21.4,15.9,30.39,NW,317,13.8,13.8,79,0.00,CLR,,0.00,56.0,WeatherDisplay:10.37,2013-01-14 14:59:00,
2013-01-14 10:04:00,21.4,15.9,30.39,West,276,15.0,15.0,79,0.00,OVC,,0.00,74.0,WeatherDisplay:10.37,2013-01-14 15:04:00,
2013-01-14 10:09:00,21.6,16.1,30.39,WNW,298,13.0,13.0,79,0.00,OVC,,0.00,308.0,WeatherDisplay:10.37,2013-01-14 15:09:00,
2013-01-14 10:14:00,21.9,16.1,30.39,WNW,296,18.4,18.4,78,0.00,OVC,,0.00,327.0,WeatherDisplay:10.37,2013-01-14 15:14:00,
2013-01-14 10:19:00,22.2,16.4,30.39,West,265,12.7,12.7,78,0.00,OVC,,0.00,348.0,WeatherDisplay:10.37,2013-01-14 15:19:00,
2013-01-14 10:24:00,22.5,16.1,30.39,NW,313,13.8,13.8,76,0.00,OVC,,0.00,352.0,WeatherDisplay:10.37,2013-01-14 15:24:00,
2013-01-14 10:29:00,22.4,16.0,30.39,NNW,329,16.1,16.1,76,0.00,OVC,,0.00,373.0,WeatherDisplay:10.37,2013-01-14 15:29:00,
2013-01-14 10:34:00,22.2,15.8,30.39,NW,307,10.0,20.0,76,0.00,OVC,,0.00,392.0,WeatherDisplay:10.37,2013-01-14 15:34:00,
2013-01-14 10:39:00,22.4,16.0,30.39,NW,308,10.0,21.0,76,0.00,OVC,,0.00,415.0,WeatherDisplay:10.37,2013-01-14 15:39:00,
2013-01-14 10:44:00,22.4,16.0,30.39,NW,316,12.0,22.0,76,0.00,OVC,,0.00,422.0,WeatherDisplay:10.37,2013-01-14 15:44:00,
2013-01-14 10:49:00,22.4,16.0,30.39,NW,313,9.0,17.0,76,0.00,OVC,,0.00,90.0,WeatherDisplay:10.37,2013-01-14 15:49:00,
2013-01-14 10:54:00,22.2,15.7,30.39,NW,309,10.0,17.0,76,0.00,OVC,,0.00,98.0,WeatherDisplay:10.37,2013-01-14 15:54:00,
2013-01-14 10:59:00,22.2,16.4,30.40,NW,306,12.0,18.0,78,0.00,OVC,,0.00,411.0,WeatherDisplay:10.37,2013-01-14 15:59:00,
2013-01-14 11:04:00,22.1,15.7,30.40,WNW,300,10.0,18.0,76,0.00,OVC,,0.00,88.0,WeatherDisplay:10.37,2013-01-14 16:04:00,
2013-01-14 11:09:00,21.8,15.7,30.40,WNW,286,19.6,19.6,77,0.00,OVC,,0.00,132.0,WeatherDisplay:10.37,2013-01-14 16:09:00,
2013-01-14 11:14:00,22.1,16.3,30.40,WNW,286,11.5,11.5,78,0.00,OVC,,0.00,156.0,WeatherDisplay:10.37,2013-01-14 16:14:00,
2013-01-14 11:19:00,22.4,16.6,30.40,NW,307,10.4,10.4,78,0.00,OVC,,0.00,250.0,WeatherDisplay:10.37,2013-01-14 16:19:00,
2013-01-14 11:24:00,22.8,17.3,30.40,NW,306,8.0,8.0,79,0.00,OVC,,0.00,160.0,WeatherDisplay:10.37,2013-01-14 16:24:00,
2013-01-14 11:29:00,22.8,16.7,30.40,WNW,290,17.0,17.0,77,0.00,OVC,,0.00,107.0,WeatherDisplay:10.37,2013-01-14 16:29:00,
2013-01-14 11:34:00,22.5,16.7,30.40,NW,311,9.0,17.0,78,0.00,OVC,,0.00,160.0,WeatherDisplay:10.37,2013-01-14 16:34:00,
2013-01-14 11:39:00,22.4,16.6,30.40,NW,304,3.0,12.0,78,0.00,OVC,,0.00,137.0,WeatherDisplay:10.37,2013-01-14 16:39:00,
2013-01-14 11:44:00,22.6,17.1,30.40,WNW,303,8.0,10.0,79,0.00,OVC,,0.00,134.0,WeatherDisplay:10.37,2013-01-14 16:44:00,
2013-01-14 11:49:00,22.4,16.5,30.40,NW,324,7.0,12.0,78,0.00,OVC,,0.00,151.0,WeatherDisplay:10.37,2013-01-14 16:49:00,
2013-01-14 11:54:00,22.4,16.6,30.39,NW,322,5.0,9.0,78,0.00,OVC,,0.00,292.0,WeatherDisplay:10.37,2013-01-14 16:54:00,
2013-01-14 11:59:00,22.7,16.9,30.39,NW,311,2.0,9.0,78,0.00,OVC,,0.00,176.0,WeatherDisplay:10.37,2013-01-14 16:59:00,
2013-01-14 12:04:00,22.8,17.3,30.39,NW,314,8.0,13.0,79,0.00,OVC,,0.00,146.0,WeatherDisplay:10.37,2013-01-14 17:04:00,
2013-01-14 12:09:00,23.2,17.4,30.38,West,276,10.4,10.4,78,0.00,OVC,,0.00,496.0,WeatherDisplay:10.37,2013-01-14 17:09:00,
2013-01-14 12:14:00,23.0,16.9,30.38,NNW,331,12.7,12.7,77,0.00,OVC,,0.00,174.0,WeatherDisplay:10.37,2013-01-14 17:14:00,
2013-01-14 12:19:00,22.9,16.5,30.38,NNW,329,12.7,12.7,76,0.00,OVC,,0.00,146.0,WeatherDisplay:10.37,2013-01-14 17:19:00,
2013-01-14 12:24:00,22.9,16.8,30.38,NW,322,8.0,12.0,77,0.00,OVC,,0.00,429.0,WeatherDisplay:10.37,2013-01-14 17:24:00,
2013-01-14 12:29:00,22.6,16.5,30.37,NW,311,7.0,14.0,77,0.00,OVC,,0.00,339.0,WeatherDisplay:10.37,2013-01-14 17:29:00,
2013-01-14 12:34:00,22.9,16.7,30.37,NW,317,6.0,12.0,77,0.00,OVC,,0.00,352.0,WeatherDisplay:10.37,2013-01-14 17:34:00,
2013-01-14 12:39:00,22.9,16.8,30.37,NW,314,5.0,10.0,77,0.00,OVC,,0.00,276.0,WeatherDisplay:10.37,2013-01-14 17:39:00,
2013-01-14 12:44:00,23.2,17.1,30.37,WNW,293,8.0,12.0,77,0.00,OVC,,0.00,318.0,WeatherDisplay:10.37,2013-01-14 17:44:00,
2013-01-14 12:49:00,23.7,17.2,30.36,West,276,6.0,14.0,76,0.00,OVC,,0.00,457.0,WeatherDisplay:10.37,2013-01-14 17:49:00,
2013-01-14 12:54:00,23.7,17.2,30.37,West,275,9.0,13.0,76,0.00,OVC,,0.00,197.0,WeatherDisplay:10.37,2013-01-14 17:54:00,
2013-01-14 12:59:00,23.3,16.9,30.38,NNW,340,9.0,9.0,76,0.00,OVC,,0.00,125.0,WeatherDisplay:10.37,2013-01-14 17:59:00,
2013-01-14 13:04:00,22.9,16.5,30.37,North,351,11.0,11.0,76,0.00,OVC,,0.00,104.0,WeatherDisplay:10.37,2013-01-14 18:04:00,
2013-01-14 13:09:00,22.5,16.4,30.37,WNW,297,7.0,7.0,77,0.00,OVC,,0.00,79.0,WeatherDisplay:10.37,2013-01-14 18:09:00,
2013-01-14 13:14:00,22.4,16.3,30.37,NNW,334,8.1,8.1,77,0.00,OVC,,0.00,371.0,WeatherDisplay:10.37,2013-01-14 18:14:00,
2013-01-14 13:19:00,22.4,16.3,30.37,West,277,8.1,8.1,77,0.00,OVC,,0.00,98.0,WeatherDisplay:10.37,2013-01-14 18:19:00,
2013-01-14 13:24:00,22.4,16.3,30.37,WNW,299,5.0,9.0,77,0.00,OVC,,0.00,102.0,WeatherDisplay:10.37,2013-01-14 18:24:00,
2013-01-14 13:29:00,22.2,16.1,30.37,NW,313,6.0,10.0,77,0.00,OVC,,0.00,109.0,WeatherDisplay:10.37,2013-01-14 18:29:00,
2013-01-14 13:34:00,22.2,16.4,30.38,NW,306,6.0,10.0,78,0.00,OVC,,0.00,116.0,WeatherDisplay:10.37,2013-01-14 18:34:00,
2013-01-14 13:39:00,22.7,16.5,30.38,West,280,6.0,9.0,77,0.00,OVC,,0.00,441.0,WeatherDisplay:10.37,2013-01-14 18:39:00,
2013-01-14 13:44:00,23.4,16.9,30.37,West,276,6.0,13.0,76,0.00,OVC,,0.00,411.0,WeatherDisplay:10.37,2013-01-14 18:44:00,
2013-01-14 13:49:00,23.7,16.6,30.37,West,278,5.0,13.0,74,0.00,OVC,,0.00,381.0,WeatherDisplay:10.37,2013-01-14 18:49:00,
2013-01-14 13:54:00,24.2,17.7,30.37,West,269,11.5,11.5,76,0.00,OVC,,0.00,366.0,WeatherDisplay:10.37,2013-01-14 18:54:00,
2013-01-14 13:59:00,24.2,17.4,30.37,West,271,8.0,8.0,75,0.00,OVC,,0.00,376.0,WeatherDisplay:10.37,2013-01-14 18:59:00,
2013-01-14 14:04:00,24.4,17.3,30.38,North,360,10.0,10.0,74,0.00,OVC,,0.00,359.0,WeatherDisplay:10.37,2013-01-14 19:04:00,
2013-01-14 14:09:00,23.9,16.8,30.38,NNW,345,9.2,9.2,74,0.00,CLR,,0.00,149.0,WeatherDisplay:10.37,2013-01-14 19:09:00,
2013-01-14 14:14:00,23.3,16.3,30.39,NNW,344,5.0,10.0,74,0.00,CLR,,0.00,125.0,WeatherDisplay:10.37,2013-01-14 19:14:00,
2013-01-14 14:19:00,22.9,16.5,30.39,NNW,344,2.0,8.0,76,0.00,CLR,,0.00,134.0,WeatherDisplay:10.37,2013-01-14 19:19:00,
2013-01-14 14:24:00,22.7,16.3,30.39,NNW,344,3.0,8.0,76,0.00,CLR,,0.00,141.0,WeatherDisplay:10.37,2013-01-14 19:24:00,
2013-01-14 14:29:00,22.7,16.3,30.39,NNW,344,5.0,10.0,76,0.00,CLR,,0.00,155.0,WeatherDisplay:10.37,2013-01-14 19:29:00,
2013-01-14 14:34:00,23.0,16.6,30.39,NNW,336,6.0,9.0,76,0.00,CLR,,0.00,213.0,WeatherDisplay:10.37,2013-01-14 19:34:00,
2013-01-14 14:39:00,23.4,16.9,30.40,NNW,334,3.0,9.0,76,0.00,CLR,,0.00,308.0,WeatherDisplay:10.37,2013-01-14 19:39:00,
2013-01-14 14:44:00,23.8,17.1,30.40,NNW,332,3.0,6.0,75,0.00,CLR,,0.00,329.0,WeatherDisplay:10.37,2013-01-14 19:44:00,
2013-01-14 14:49:00,24.5,17.7,30.41,WNW,302,5.0,9.0,75,0.00,CLR,,0.00,288.0,WeatherDisplay:10.37,2013-01-14 19:49:00,
2013-01-14 14:54:00,24.7,17.3,30.41,West,278,10.4,10.4,73,0.00,CLR,,0.00,227.0,WeatherDisplay:10.37,2013-01-14 19:54:00,
2013-01-14 14:59:00,24.5,16.8,30.40,WSW,247,8.1,8.1,72,0.00,CLR,,0.00,206.0,WeatherDisplay:10.37,2013-01-14 19:59:00,
2013-01-14 15:04:00,24.6,17.2,30.41,SW,229,10.4,10.4,73,0.00,CLR,,0.00,167.0,WeatherDisplay:10.37,2013-01-14 20:04:00,
2013-01-14 15:09:00,24.4,17.0,30.41,West,277,10.4,10.4,73,0.00,CLR,,0.00,160.0,WeatherDisplay:10.37,2013-01-14 20:09:00,
2013-01-14 15:14:00,24.4,17.3,30.40,WNW,299,7.0,9.0,74,0.00,CLR,,0.00,146.0,WeatherDisplay:10.37,2013-01-14 20:14:00,
2013-01-14 15:19:00,24.3,16.9,30.40,WNW,298,5.0,7.0,73,0.00,CLR,,0.00,156.0,WeatherDisplay:10.37,2013-01-14 20:19:00,
2013-01-14 15:24:00,24.1,16.7,30.41,West,278,3.0,6.0,73,0.00,FEW,,0.00,114.0,WeatherDisplay:10.37,2013-01-14 20:24:00,
2013-01-14 15:29:00,23.9,16.8,30.42,West,264,5.0,9.0,74,0.00,SCT,,0.00,100.0,WeatherDisplay:10.37,2013-01-14 20:29:00,
2013-01-14 15:34:00,23.7,17.3,30.43,West,268,5.0,8.0,76,0.00,SCT,,0.00,107.0,WeatherDisplay:10.37,2013-01-14 20:34:00,
2013-01-14 15:39:00,23.9,17.4,30.43,WSW,256,5.8,5.8,76,0.00,SCT,,0.00,105.0,WeatherDisplay:10.37,2013-01-14 20:39:00,
2013-01-14 15:44:00,23.9,17.7,30.43,West,269,6.9,6.9,77,0.00,SCT,,0.00,97.0,WeatherDisplay:10.37,2013-01-14 20:44:00,
2013-01-14 15:49:00,23.8,17.3,30.42,West,275,5.8,5.8,76,0.00,BKN,,0.00,86.0,WeatherDisplay:10.37,2013-01-14 20:49:00,
2013-01-14 15:54:00,23.5,17.0,30.43,WNW,296,8.1,8.1,76,0.00,BKN,,0.00,79.0,WeatherDisplay:10.37,2013-01-14 20:54:00,
2013-01-14 15:59:00,23.5,17.3,30.43,NW,321,7.0,7.0,77,0.00,BKN,,0.00,70.0,WeatherDisplay:10.37,2013-01-14 20:59:00,
2013-01-14 16:04:00,23.4,16.9,30.43,WNW,293,6.0,12.0,76,0.00,BKN,,0.00,62.0,WeatherDisplay:10.37,2013-01-14 21:04:00,
2013-01-14 16:09:00,23.3,17.2,30.43,West,279,3.0,8.0,77,0.00,BKN,,0.00,51.0,WeatherDisplay:10.37,2013-01-14 21:09:00,
2013-01-14 16:14:00,23.3,17.2,30.43,WNW,287,3.0,7.0,77,0.00,BKN,,0.00,49.0,WeatherDisplay:10.37,2013-01-14 21:14:00,
2013-01-14 16:19:00,23.2,17.1,30.43,WNW,292,5.0,8.0,77,0.00,BKN,,0.00,44.0,WeatherDisplay:10.37,2013-01-14 21:19:00,
2013-01-14 16:24:00,23.2,17.1,30.44,WNW,284,6.0,9.0,77,0.00,BKN,,0.00,35.0,WeatherDisplay:10.37,2013-01-14 21:24:00,
2013-01-14 16:29:00,23.2,17.4,30.44,WNW,292,3.0,7.0,78,0.00,BKN,,0.00,39.0,WeatherDisplay:10.37,2013-01-14 21:29:00,
2013-01-14 16:34:00,23.3,17.5,30.44,WNW,299,5.0,6.0,78,0.00,BKN,,0.00,28.0,WeatherDisplay:10.37,2013-01-14 21:34:00,
2013-01-14 16:39:00,23.3,17.5,30.44,WNW,283,2.0,7.0,78,0.00,BKN,,0.00,23.0,WeatherDisplay:10.37,2013-01-14 21:39:00,
2013-01-14 16:44:00,23.2,17.4,30.43,West,281,6.9,6.9,78,0.00,BKN,,0.00,23.0,WeatherDisplay:10.37,2013-01-14 21:44:00,
2013-01-14 16:49:00,23.2,17.4,30.43,WNW,296,6.9,6.9,78,0.00,BKN,,0.00,21.0,WeatherDisplay:10.37,2013-01-14 21:49:00,
2013-01-14 16:54:00,23.2,17.3,30.44,WNW,290,3.0,6.0,78,0.00,CLR,,0.00,12.0,WeatherDisplay:10.37,2013-01-14 21:54:00,
2013-01-14 16:59:00,23.1,17.3,30.44,WSW,239,5.0,5.0,78,0.00,CLR,,0.00,9.0,WeatherDisplay:10.37,2013-01-14 21:59:00,
2013-01-14 17:04:00,23.2,17.3,30.45,West,269,5.0,8.0,78,0.00,CLR,,0.00,7.0,WeatherDisplay:10.37,2013-01-14 22:04:00,
2013-01-14 17:09:00,23.1,17.3,30.45,West,274,3.0,6.0,78,0.00,CLR,,0.00,7.0,WeatherDisplay:10.37,2013-01-14 22:09:00,
2013-01-14 17:14:00,23.2,17.3,30.46,West,279,2.0,5.0,78,0.00,CLR,,0.00,5.0,WeatherDisplay:10.37,2013-01-14 22:14:00,
2013-01-14 17:19:00,23.2,17.4,30.46,West,277,2.0,7.0,78,0.00,CLR,,0.00,5.0,WeatherDisplay:10.37,2013-01-14 22:19:00,
2013-01-14 17:24:00,23.2,17.4,30.46,West,269,5.0,7.0,78,0.00,CLR,,0.00,0.0,WeatherDisplay:10.37,2013-01-14 22:24:00,
2013-01-14 17:29:00,23.3,17.5,30.46,West,275,3.0,7.0,78,0.00,CLR,,0.00,5.0,WeatherDisplay:10.37,2013-01-14 22:29:00,
2013-01-14 17:34:00,23.2,17.4,30.45,WNW,287,0.0,6.0,78,0.00,CLR,,0.00,5.0,WeatherDisplay:10.37,2013-01-14 22:34:00,
2013-01-14 17:39:00,23.2,17.4,30.44,WNW,290,3.5,3.5,78,0.00,CLR,,0.00,0.0,WeatherDisplay:10.37,2013-01-14 22:39:00,
2013-01-14 17:44:00,23.1,17.3,30.44,WSW,252,3.5,4.0,78,0.00,CLR,,0.00,0.0,WeatherDisplay:10.37,2013-01-14 22:44:00,
2013-01-14 17:49:00,23.1,17.3,30.45,WSW,255,3.5,3.5,78,0.00,CLR,,0.00,0.0,WeatherDisplay:10.37,2013-01-14 22:49:00,
2013-01-14 17:54:00,23.0,17.1,30.45,West,261,0.0,3.0,78,0.00,CLR,,0.00,0.0,WeatherDisplay:10.37,2013-01-14 22:54:00,
2013-01-14 17:59:00,22.9,17.3,30.45,West,259,0.0,2.0,79,0.00,CLR,,0.00,0.0,WeatherDisplay:10.37,2013-01-14 22:59:00,
2013-01-14 18:04:00,22.7,17.2,30.45,West,260,0.0,3.0,79,0.00,CLR,,0.00,0.0,WeatherDisplay:10.37,2013-01-14 23:04:00,
2013-01-14 18:09:00,22.5,17.0,30.45,West,260,1.0,2.0,79,0.00,CLR,,0.00,0.0,WeatherDisplay:10.37,2013-01-14 23:09:00,
2013-01-14 18:14:00,22.3,17.1,30.45,West,260,0.0,2.0,80,0.00,CLR,,0.00,0.0,WeatherDisplay:10.37,2013-01-14 23:14:00,
2013-01-14 18:19:00,22.1,16.8,30.44,West,260,0.0,0.0,80,0.00,CLR,,0.00,0.0,WeatherDisplay:10.37,2013-01-14 23:19:00,
2013-01-14 18:24:00,21.8,16.6,30.44,West,260,0.0,0.0,80,0.00,CLR,,0.00,0.0,WeatherDisplay:10.37,2013-01-14 23:24:00,
2013-01-14 18:29:00,21.5,16.6,30.45,West,260,0.0,0.0,81,0.00,CLR,,0.00,0.0,WeatherDisplay:10.37,2013-01-14 23:29:00,
2013-01-14 18:34:00,21.2,16.6,30.45,West,260,0.0,0.0,82,0.00,CLR,,0.00,0.0,WeatherDisplay:10.37,2013-01-14 23:34:00,
2013-01-14 18:39:00,20.8,16.5,30.45,West,260,0.0,0.0,83,0.00,CLR,,0.00,0.0,WeatherDisplay:10.37,2013-01-14 23:39:00,
2013-01-14 18:44:00,20.6,16.3,30.45,West,260,0.0,0.0,83,0.00,CLR,,0.00,0.0,WeatherDisplay:10.37,2013-01-14 23:44:00,
2013-01-14 18:49:00,20.3,16.3,30.44,West,260,0.0,0.0,84,0.00,CLR,,0.00,0.0,WeatherDisplay:10.37,2013-01-14 23:49:00,
2013-01-14 18:54:00,20.2,16.4,30.44,West,260,1.0,2.0,85,0.00,CLR,,0.00,0.0,WeatherDisplay:10.37,2013-01-14 23:54:00,
2013-01-14 18:59:00,20.0,16.5,30.44,West,260,1.0,2.0,86,0.00,CLR,,0.00,0.0,WeatherDisplay:10.37,2013-01-14 23:59:00,
2013-01-14 19:04:00,19.9,16.4,30.44,West,260,0.0,1.0,86,0.00,CLR,,0.00,0.0,WeatherDisplay:10.37,2013-01-15 00:04:00,
2013-01-14 19:09:00,19.7,16.5,30.44,West,260,1.0,2.0,87,0.00,CLR,,0.00,0.0,WeatherDisplay:10.37,2013-01-15 00:09:00,
2013-01-14 19:14:00,19.5,16.3,30.44,West,260,0.0,2.0,87,0.00,CLR,,0.00,0.0,WeatherDisplay:10.37,2013-01-15 00:14:00,
2013-01-14 19:19:00,19.3,16.1,30.44,West,260,0.0,2.0,87,0.00,CLR,,0.00,0.0,WeatherDisplay:10.37,2013-01-15 00:19:00,
2013-01-14 19:24:00,19.0,15.8,30.44,West,260,0.0,0.0,87,0.00,CLR,,0.00,0.0,WeatherDisplay:10.37,2013-01-15 00:24:00,
2013-01-14 19:29:00,18.7,15.5,30.44,West,260,1.0,1.0,87,0.00,CLR,,0.00,0.0,WeatherDisplay:10.37,2013-01-15 00:29:00,
2013-01-14 19:34:00,18.5,15.5,30.43,West,260,0.0,0.0,88,0.00,CLR,,0.00,0.0,WeatherDisplay:10.37,2013-01-15 00:34:00,
2013-01-14 19:39:00,18.3,15.3,30.43,West,260,1.0,1.0,88,0.00,CLR,,0.00,0.0,WeatherDisplay:10.37,2013-01-15 00:39:00,
2013-01-14 19:44:00,18.2,15.5,30.43,West,259,0.0,0.0,89,0.00,CLR,,0.00,0.0,WeatherDisplay:10.37,2013-01-15 00:44:00,
2013-01-14 19:49:00,18.1,15.7,30.43,West,259,1.0,2.0,90,0.00,CLR,,0.00,0.0,WeatherDisplay:10.37,2013-01-15 00:49:00,
2013-01-14 19:54:00,18.1,15.7,30.43,West,259,0.0,1.0,90,0.00,CLR,,0.00,0.0,WeatherDisplay:10.37,2013-01-15 00:54:00,
2013-01-14 19:59:00,18.0,15.5,30.43,West,259,1.0,2.0,90,0.00,CLR,,0.00,0.0,WeatherDisplay:10.37,2013-01-15 00:59:00,
2013-01-14 20:04:00,17.8,15.4,30.43,West,259,0.0,2.0,90,0.00,CLR,,0.00,0.0,WeatherDisplay:10.37,2013-01-15 01:04:00,
2013-01-14 20:09:00,17.6,15.2,30.43,West,259,1.0,2.0,90,0.00,CLR,,0.00,0.0,WeatherDisplay:10.37,2013-01-15 01:09:00,
2013-01-14 20:14:00,17.4,15.0,30.42,West,259,0.0,0.2,90,0.00,CLR,,0.00,0.0,WeatherDisplay:10.37,2013-01-15 01:14:00,
2013-01-14 20:19:00,17.2,14.8,30.42,West,259,0.0,0.0,90,0.00,CLR,,0.00,0.0,WeatherDisplay:10.37,2013-01-15 01:19:00,
2013-01-14 20:24:00,17.1,14.7,30.42,West,259,2.3,2.3,90,0.00,CLR,,0.00,0.0,WeatherDisplay:10.37,2013-01-15 01:24:00,
2013-01-14 20:29:00,17.0,14.8,30.42,West,259,1.1,1.1,91,0.00,CLR,,0.00,0.0,WeatherDisplay:10.37,2013-01-15 01:29:00,
2013-01-14 20:34:00,17.0,14.8,30.42,West,259,0.0,2.0,91,0.00,CLR,,0.00,0.0,WeatherDisplay:10.37,2013-01-15 01:34:00,
2013-01-14 20:39:00,17.3,15.4,30.42,West,259,1.0,2.0,92,0.00,CLR,,0.00,0.0,WeatherDisplay:10.37,2013-01-15 01:39:00,
2013-01-14 20:44:00,17.5,15.6,30.42,West,259,0.0,2.0,92,0.00,CLR,,0.00,0.0,WeatherDisplay:10.37,2013-01-15 01:44:00,
2013-01-14 20:49:00,17.6,15.7,30.42,West,259,1.0,2.0,92,0.00,CLR,,0.00,0.0,WeatherDisplay:10.37,2013-01-15 01:49:00,
2013-01-14 20:54:00,17.6,15.7,30.42,WSW,255,2.0,3.0,92,0.00,CLR,,0.00,0.0,WeatherDisplay:10.37,2013-01-15 01:54:00,
2013-01-14 20:59:00,17.7,15.8,30.42,WSW,250,1.0,3.0,92,0.00,CLR,,0.00,0.0,WeatherDisplay:10.37,2013-01-15 01:59:00,
2013-01-14 21:04:00,17.5,15.3,30.42,WSW,248,1.0,3.0,91,0.00,CLR,,0.00,0.0,WeatherDisplay:10.37,2013-01-15 02:04:00,
2013-01-14 21:09:00,17.5,15.3,30.42,WSW,248,2.0,3.0,91,0.00,CLR,,0.00,0.0,WeatherDisplay:10.37,2013-01-15 02:09:00,
2013-01-14 21:14:00,17.5,15.3,30.43,WSW,242,2.0,3.0,91,0.00,CLR,,0.00,0.0,WeatherDisplay:10.37,2013-01-15 02:14:00,
2013-01-14 21:19:00,17.6,15.4,30.43,WSW,237,3.5,3.5,91,0.00,CLR,,0.00,0.0,WeatherDisplay:10.37,2013-01-15 02:19:00,
2013-01-14 21:24:00,17.9,16.0,30.43,WSW,247,3.5,3.5,92,0.00,CLR,,0.00,0.0,WeatherDisplay:10.37,2013-01-15 02:24:00,
2013-01-14 21:29:00,17.9,15.7,30.43,WSW,247,2.3,2.3,91,0.00,CLR,,0.00,0.0,WeatherDisplay:10.37,2013-01-15 02:29:00,
2013-01-14 21:34:00,17.8,15.6,30.43,WSW,247,0.0,0.6,91,0.00,CLR,,0.00,0.0,WeatherDisplay:10.37,2013-01-15 02:34:00,
2013-01-14 21:39:00,17.6,15.2,30.43,WSW,247,0.0,2.0,90,0.00,CLR,,0.00,0.0,WeatherDisplay:10.37,2013-01-15 02:39:00,
2013-01-14 21:44:00,17.4,15.0,30.43,WSW,247,1.0,2.0,90,0.00,CLR,,0.00,0.0,WeatherDisplay:10.37,2013-01-15 02:44:00,
2013-01-14 21:49:00,17.2,14.8,30.42,WSW,250,1.0,3.0,90,0.00,CLR,,0.00,0.0,WeatherDisplay:10.37,2013-01-15 02:49:00,
2013-01-14 21:54:00,17.1,14.7,30.42,West,260,1.0,3.0,90,0.00,CLR,,0.00,0.0,WeatherDisplay:10.37,2013-01-15 02:54:00,
2013-01-14 21:59:00,17.1,14.9,30.42,West,266,1.0,2.0,91,0.00,CLR,,0.00,0.0,WeatherDisplay:10.37,2013-01-15 02:59:00,
2013-01-14 22:04:00,17.0,14.6,30.42,West,266,0.0,1.0,90,0.00,CLR,,0.00,0.0,WeatherDisplay:10.37,2013-01-15 03:04:00,
2013-01-14 22:09:00,16.7,14.3,30.41,West,266,0.0,0.0,90,0.00,CLR,,0.00,0.0,WeatherDisplay:10.37,2013-01-15 03:09:00,
2013-01-14 22:14:00,16.5,14.1,30.41,West,266,0.0,0.0,90,0.00,CLR,,0.00,0.0,WeatherDisplay:10.37,2013-01-15 03:14:00,
2013-01-14 22:19:00,16.3,13.9,30.42,West,266,0.0,0.0,90,0.00,CLR,,0.00,0.0,WeatherDisplay:10.37,2013-01-15 03:19:00,
2013-01-14 22:24:00,16.2,13.8,30.41,West,266,1.1,1.1,90,0.00,CLR,,0.00,0.0,WeatherDisplay:10.37,2013-01-15 03:24:00,
2013-01-14 22:29:00,16.1,13.7,30.41,West,266,1.1,1.1,90,0.00,CLR,,0.00,0.0,WeatherDisplay:10.37,2013-01-15 03:29:00,
2013-01-14 22:34:00,15.9,13.5,30.41,West,266,0.0,0.0,90,0.00,CLR,,0.00,0.0,WeatherDisplay:10.37,2013-01-15 03:34:00,
2013-01-14 22:39:00,15.8,13.6,30.41,West,266,0.0,0.0,91,0.00,CLR,,0.00,0.0,WeatherDisplay:10.37,2013-01-15 03:39:00,
2013-01-14 22:44:00,15.7,13.3,30.41,West,266,0.0,0.0,90,0.00,CLR,,0.00,0.0,WeatherDisplay:10.37,2013-01-15 03:44:00,
2013-01-14 22:49:00,15.6,13.4,30.41,West,266,1.0,2.0,91,0.00,CLR,,0.00,0.0,WeatherDisplay:10.37,2013-01-15 03:49:00,
2013-01-14 22:54:00,15.5,13.4,30.41,West,266,1.0,2.0,91,0.00,CLR,,0.00,0.0,WeatherDisplay:10.37,2013-01-15 03:54:00,
2013-01-14 22:59:00,15.5,13.3,30.41,West,266,1.0,3.0,91,0.00,CLR,,0.00,0.0,WeatherDisplay:10.37,2013-01-15 03:59:00,
2013-01-14 23:04:00,15.4,13.2,30.41,West,266,1.0,2.0,91,0.00,CLR,,0.00,0.0,WeatherDisplay:10.37,2013-01-15 04:04:00,
2013-01-14 23:10:00,15.3,13.1,30.41,West,266,2.3,2.3,91,0.00,CLR,,0.00,0.0,WeatherDisplay:10.37,2013-01-15 04:10:00,
2013-01-14 23:15:00,15.3,13.1,30.41,West,270,3.5,3.5,91,0.00,CLR,,0.00,0.0,WeatherDisplay:10.37,2013-01-15 04:15:00,
2013-01-14 23:20:00,15.4,13.2,30.41,WNW,290,4.6,4.6,91,0.00,CLR,,0.00,0.0,WeatherDisplay:10.37,2013-01-15 04:20:00,
2013-01-14 23:25:00,15.8,13.9,30.41,WNW,286,4.6,4.6,92,0.00,CLR,,0.00,0.0,WeatherDisplay:10.37,2013-01-15 04:25:00,
2013-01-14 23:30:00,16.1,14.2,30.41,West,278,2.3,2.3,92,0.00,CLR,,0.00,0.0,WeatherDisplay:10.37,2013-01-15 04:30:00,
2013-01-14 23:35:00,16.4,14.5,30.41,WNW,292,3.5,3.5,92,0.00,CLR,,0.00,0.0,WeatherDisplay:10.37,2013-01-15 04:35:00,
2013-01-14 23:40:00,16.6,14.7,30.41,WNW,286,2.3,2.3,92,0.00,CLR,,0.00,0.0,WeatherDisplay:10.37,2013-01-15 04:40:00,
2013-01-14 23:45:00,16.6,14.7,30.41,WNW,294,3.5,3.5,92,0.00,CLR,,0.00,0.0,WeatherDisplay:10.37,2013-01-15 04:45:00,
2013-01-14 23:50:00,16.8,14.9,30.41,NW,306,3.5,3.5,92,0.00,CLR,,0.00,0.0,WeatherDisplay:10.37,2013-01-15 04:50:00,
2013-01-14 23:55:00,17.0,15.1,30.41,NW,306,3.5,3.5,92,0.00,CLR,,0.00,0.0,WeatherDisplay:10.37,2013-01-15 04:55:00,